Location: Arbon
(43.0005°N, 0.7472°E)
Time: 18:48:35
(UTC+00:00)

CZ-2D R/B - Pass Details

Date: 07 August 2020
Orbit: 552 x 639 km, 97.9° (Epoch: 23 September)

Event Time Altitude Azimuth Distance (km) Brightness Sun altitude
Rises 03:22:19 0° 9° (N) 2,798 7.7 -15.1°
Reaches altitude 10° 03:24:30 10° 6° (N) 1,882 6.7 -14.8°
Maximum altitude 03:28:30 61° 286° (WNW) 644 3.4 -14.3°
Enters shadow 03:30:57 22° 212° (SSW) 1,253 4.6 -13.9°
